Content
SEND FEEDBACK

Daily
Averages
Monthly
Summary
United States of America

HUMBOLDT, IOWA


Home > North America > United States > Iowa
Elevation: 1131 feet     Latitude: 42 42N     Longitude: 094 16W

WEATHER
 
SELECT A DAY
Number of Records: 409,771;   Date Range: 4/29/95 - 7/27/14
 
SHARE

PRINT THIS DATA

[ ← Previous Day ]
WEATHER ALMANAC - JANUARY 31, 2013
[ Next Day → ]
[ °C ]   °F
Weather ElementAverageHighLow
Temperature1.4 °F8.6 °F (12:35 am)-5.8 °F (10:55 pm)
Dewpoint-8.2 °F3.2 °F (12:35 am)-14.8 °F (10:15 pm)
Humidity64.5 %79 % (12:35 am)56 % (10:35 am)
Barometer30.05 in30.29 in (11:35 pm)29.81 in (12:35 am)
Wind Speed19.7 mph26.5 mph (12:35 pm)
Wind Gust38 mph (4:35 pm)
Weather ElementAverage
Visibility9.7 mi
Wind DirectionNW (316.9 °)

Weather ElementTotal
Precipitation---
Heating Degree Days63.6 (Base 65)
Averaged from 68 records on January 31, 2013
WEATHER CONDITIONS BREAKOUT
WIND DIRECTION BREAKOUT
WEATHER BY HOUR - JANUARY 31, 2013
[ °C ]   °F
Local TimeTemperatureDewpointHumidityBarometerVisibilityWind DirectionWind SpeedGust SpeedPrecipitationEventsConditions
12:35 AM8.6 °F3.2 °F79 %29.81 in6.0 miWNW (300°)16.1 mph26.5 mphSnowLight Snow
12:55 AM6.8 °F-0.4 °F72 %29.82 in10.0 miNW (310°)15.0 mph21.9 mphSnowLight Snow
1:15 AM6.8 °F-0.4 °F72 %29.82 in10.0 miNW (320°)13.8 mph20.7 mphMostly Cloudy
1:35 AM6.8 °F-0.4 °F72 %29.81 in10.0 miNW (320°)16.1 mphOvercast
1:55 AM5.0 °F-0.4 °F78 %29.82 in10.0 miNW (320°)15.0 mphMostly Cloudy
2:15 AM5.0 °F-0.4 °F78 %29.82 in10.0 miNW (320°)13.8 mph20.7 mphSnowLight Snow
2:35 AM5.0 °F-2.2 °F72 %29.83 in10.0 miNW (310°)15.0 mphLight Drizzle
2:55 AM5.0 °F-2.2 °F72 %29.83 in10.0 miWNW (300°)16.1 mphOvercast
3:15 AM3.2 °F-4.0 °F72 %29.84 in10.0 miNW (310°)24.2 mphOvercast
3:35 AM3.2 °F-4.0 °F72 %29.84 in10.0 miWNW (300°)19.6 mph25.3 mphSnowLight Snow
3:55 AM3.2 °F-5.8 °F66 %29.85 in10.0 miWNW (300°)17.3 mph25.3 mphSnowLight Snow
4:15 AM1.4 °F-5.8 °F72 %29.86 in10.0 miNW (310°)20.7 mph27.6 mphSnowLight Snow
4:35 AM1.4 °F-5.8 °F72 %29.86 in10.0 miNW (320°)18.4 mph26.5 mphSnowLight Snow
4:55 AM1.4 °F-5.8 °F72 %29.87 in10.0 miNW (310°)18.4 mphOvercast
5:15 AM1.4 °F-5.8 °F72 %29.88 in10.0 miNW (310°)16.1 mph25.3 mphSnowLight Snow
5:35 AM1.4 °F-5.8 °F72 %29.89 in10.0 miNW (310°)19.6 mphOvercast
5:55 AM1.4 °F-5.8 °F72 %29.89 in10.0 miNW (310°)20.7 mphSnowLight Snow
6:15 AM1.4 °F-5.8 °F72 %29.90 in10.0 miNNW (330°)19.6 mph26.5 mphSnowLight Snow
6:35 AM1.4 °F-7.6 °F66 %29.90 in10.0 miNNW (330°)19.6 mph26.5 mphOvercast
6:55 AM-0.4 °F-7.6 °F72 %29.92 in10.0 miNW (320°)18.4 mph26.5 mphSnowLight Snow
7:15 AM-0.4 °F-7.6 °F72 %29.93 in10.0 miNW (310°)20.7 mphOvercast
7:35 AM-0.4 °F-9.4 °F66 %29.94 in10.0 miNW (320°)15.0 mph24.2 mphOvercast
7:55 AM-0.4 °F-9.4 °F66 %29.96 in10.0 miNW (320°)17.3 mph27.6 mphSnowLight Snow
8:15 AM-0.4 °F-9.4 °F66 %29.97 in10.0 miNW (320°)19.6 mph28.8 mphSnowLight Snow
8:35 AM-0.4 °F-9.4 °F66 %29.98 in10.0 miNW (320°)24.2 mph32.2 mphSnowLight Snow
8:55 AM-0.4 °F-9.4 °F66 %29.99 in10.0 miNW (310°)25.3 mph32.2 mphSnowLight Snow
9:15 AM-0.4 °F-9.4 °F66 %30.00 in10.0 miNW (320°)19.6 mph31.1 mphSnowLight Snow
9:35 AM-0.4 °F-9.4 °F66 %30.01 in10.0 miNW (320°)21.9 mph32.2 mphSnowLight Snow
9:55 AM1.4 °F-9.4 °F61 %30.02 in10.0 miNNW (330°)23.0 mph33.4 mphSnowLight Snow
10:15 AM1.4 °F-9.4 °F61 %30.03 in10.0 miNW (320°)23.0 mph32.2 mphSnowLight Snow
10:35 AM1.4 °F-11.2 °F56 %30.04 in10.0 miNW (320°)25.3 mph32.2 mphSnowLight Snow
10:55 AM1.4 °F-11.2 °F56 %30.05 in10.0 miNNW (330°)25.3 mph34.5 mphSnowLight Snow
11:15 AM3.2 °F-9.4 °F56 %30.06 in10.0 miNNW (330°)24.2 mph34.5 mphSnowLight Snow
11:35 AM1.4 °F-9.4 °F61 %30.07 in10.0 miNNW (330°)25.3 mph35.7 mphSnowLight Snow
11:55 AM3.2 °F-9.4 °F56 %30.07 in10.0 miNW (320°)24.2 mph32.2 mphSnowLight Snow
12:15 PM3.2 °F-9.4 °F56 %30.08 in10.0 miNW (320°)19.6 mph32.2 mphSnowLight Snow
12:35 PM3.2 °F-9.4 °F56 %30.08 in9.0 miNW (320°)26.5 mph36.8 mphSnowLight Snow
12:55 PM1.4 °F-9.4 °F61 %30.09 in7.0 miNW (320°)24.2 mph32.2 mphSnowLight Snow
1:15 PM3.2 °F-9.4 °F56 %30.10 in9.0 miNW (320°)20.7 mph33.4 mphSnowLight Snow
1:35 PM1.4 °F-9.4 °F61 %30.10 in8.0 miNW (320°)21.9 mph33.4 mphSnowLight Snow
1:55 PM3.2 °F-9.4 °F56 %30.11 in6.0 miNW (320°)21.9 mph36.8 mphSnowLight Snow
2:15 PM3.2 °F-7.6 °F61 %30.11 in7.0 miNW (310°)25.3 mph33.4 mphSnowLight Snow
2:35 PM3.2 °F-7.6 °F61 %30.12 in10.0 miNW (320°)23.0 mph34.5 mphSnowLight Snow
2:55 PM3.2 °F-7.6 °F61 %30.12 in7.0 miNW (320°)25.3 mph33.4 mphSnowLight Snow
3:15 PM3.2 °F-7.6 °F61 %30.13 in10.0 miNW (320°)26.5 mph33.4 mphSnowLight Snow
3:35 PM5.0 °F-7.6 °F56 %30.14 in10.0 miNW (320°)24.2 mph35.7 mphSnowLight Snow
3:55 PM5.0 °F-7.6 °F56 %30.15 in10.0 miNW (320°)24.2 mph33.4 mphSnowLight Snow
4:15 PM3.2 °F-9.4 °F56 %30.16 in10.0 miNW (320°)24.2 mph35.7 mphSnowLight Snow
4:35 PM3.2 °F-9.4 °F56 %30.17 in10.0 miNW (320°)19.6 mph38.0 mphSnowLight Snow
4:55 PM3.2 °F-9.4 °F56 %30.18 in10.0 miNNW (330°)20.7 mph27.6 mphSnowLight Snow
5:15 PM3.2 °F-9.4 °F56 %30.18 in10.0 miNW (320°)21.9 mph29.9 mphSnowLight Snow
5:35 PM1.4 °F-9.4 °F61 %30.19 in10.0 miNW (320°)18.4 mph33.4 mphSnowLight Snow
5:55 PM1.4 °F-9.4 °F61 %30.20 in10.0 miNW (320°)15.0 mph26.5 mphScattered Clouds
6:15 PM1.4 °F-9.4 °F61 %30.20 in10.0 miNW (320°)19.6 mph27.6 mphPartly Cloudy
6:35 PM1.4 °F-9.4 °F61 %30.21 in10.0 miNW (310°)20.7 mphSnowLight Snow
6:55 PM-0.4 °F-9.4 °F66 %30.22 in10.0 miNW (310°)18.4 mph27.6 mphSnowLight Snow
7:15 PM-0.4 °F-9.4 °F66 %30.23 in10.0 miNW (310°)17.3 mph24.2 mphMostly Cloudy
7:35 PM-0.4 °F-11.2 °F60 %30.23 in10.0 miNW (320°)17.3 mph27.6 mphSnowLight Snow
8:15 PM-2.2 °F-11.2 °F66 %30.25 in10.0 miNW (310°)18.4 mph25.3 mphScattered Clouds
8:35 PM-2.2 °F-11.2 °F66 %30.26 in10.0 miNW (310°)13.8 mph23.0 mphMostly Cloudy
9:15 PM-2.2 °F-13.0 °F60 %30.26 in10.0 miNW (310°)16.1 mph25.3 mphSnowLight Snow
9:35 PM-4.0 °F-13.0 °F65 %30.27 in10.0 miNW (320°)13.8 mph24.2 mphPartly Cloudy
10:15 PM-4.0 °F-14.8 °F60 %30.28 in10.0 miNW (310°)16.1 mph25.3 mphSnowLight Snow
10:35 PM-4.0 °F-14.8 °F60 %30.28 in10.0 miNW (320°)12.7 mph23.0 mphPartly Cloudy
10:55 PM-5.8 °F-14.8 °F65 %30.28 in10.0 miNW (320°)15.0 mph23.0 mphClear
11:15 PM-5.8 °F-14.8 °F65 %30.28 in10.0 miNW (320°)15.0 mphClear
11:35 PM-5.8 °F-14.8 °F65 %30.29 in10.0 miNW (310°)16.1 mphClear
11:55 PM-5.8 °F-14.8 °F65 %30.29 in10.0 miNW (310°)16.1 mphClear
Hourly data recorded from KAXA, located miles away from Humboldt, Iowa







STORIES FROM OUR PARTNERS